Regional Weather Roundup
Issued by NWS

Home | Current Version | Previous Version | Text Only | Print | Product List | Glossary Off
Versions: 1 2 3 4 5 6 7 8 9 10 11 12 13 14 15 16 17 18 19 20 21 22 23 24 25 26 27 28 29 30 31 32 33 34 35 36 37 38 39 40 41 42 43 44 45 46 47 48 49 50

000
ASUS43 KMKX 201121
RWRWI

WISCONSIN REGIONAL WEATHER ROUNDUP
NATIONAL WEATHER SERVICE MILWAUKEE/SULLIVAN WI
500 AM CST MON FEB 20 2017

NOTE: "FAIR" INDICATES FEW OR NO CLOUDS BELOW 12,000 FEET WITH NO
SIGNIFICANT WEATHER AND/OR OBSTRUCTIONS TO VISIBILITY.

WIZ001-002-006>008-014>016-023>028-201200-
NORTHWEST WISCONSIN

CITY           SKY/WX    TMP DP  RH WIND       PRES   REMARKS
SUPERIOR ARPT  CLOUDY    36  34  93 E13       29.93R WCI  27
ASHLAND        CLOUDY    33  31  92 CALM      29.95S
HAYWARD        CLOUDY    50  36  58 SE14G23   29.93R
SIREN          CLOUDY    48  37  64 SE10      29.86F
CUMBERLAND     CLOUDY    41  34  75 SE9       29.91S
RICE LAKE      CLOUDY    46  36  68 SE15      29.93F
CHETEK         CLOUDY    44  36  73 SE10      29.93F
LADYSMITH      CLOUDY    44  35  71 E9        29.99R
EAU CLAIRE     MOCLDY    47  37  68 E7        29.93R
MENOMONIE      CLOUDY    42  37  80 E5        29.92S
NEW RICHMOND   MOCLDY    47  38  72 SE7       29.88F
OSCEOLA        MOCLDY    48  40  73 SE13      29.89S
$$

WIZ003>005-009-010-017-018-201200-
NORTH CENTRAL WISCONSIN

CITY           SKY/WX    TMP DP  RH WIND       PRES   REMARKS
MANITOWISH WTR MOCLDY    40  30  68 SE7       30.02S
ARBOR VITAE    PTCLDY    42  32  68 SE12      30.03F
WOODRUFF       PTCLDY    42  32  68 SE12      30.03F
RHINELANDER    MOCLDY    39  30  70 SE10      30.06F WCI  32
EAGLE RIVER    CLOUDY    37  28  71 SE9       30.06S WCI  30
LAND O LAKES   CLOUDY    38  30  71 SE8       30.08F WCI  33
PHILLIPS       CLOUDY    40  32  73 SE7       30.01R
TOMAHAWK       PTCLDY    38  29  70 SE6       30.05R WCI  34
MEDFORD        CLOUDY    38  31  73 SE8       30.01R WCI  33
MERRILL        NOT AVBL
$$

WIZ029-030-035-036-043>047-201200-
CENTRAL WISCONSIN

CITY           SKY/WX    TMP DP  RH WIND       PRES   REMARKS
WAUSAU         PTCLDY    37  29  72 E7        30.05S WCI  32
MOSINEE        PTCLDY    37  30  75 E8        30.07R WCI  31
MARSHFIELD     CLOUDY    40  31  70 E9        30.01S WCI  34
STEVENS POINT  MOCLDY    36  29  78 E7        30.07R WCI  30
WAUPACA        PTCLDY    34  31  88 CALM      30.09S
WAUTOMA        CLOUDY    35  30  82 NE5       30.08S WCI  31
WISC RAPIDS    CLOUDY    41  33  73 E7        30.04F
CAMP DOUGLAS   PTCLDY    43  36  75 SE12      30.01S
$$

WIZ011>013-019>022-031-037>040-048>050-201200-
NORTHEAST WISCONSIN

CITY           SKY/WX    TMP DP  RH WIND       PRES   REMARKS
ANTIGO         PTCLDY    35  30  83 SE14      30.09R WCI  26
SHAWANO        PTCLDY    33  31  92 NE3       30.13S
OCONTO         CLOUDY    32  30  92 CALM      30.14S
STURGEON BAY   CLOUDY    37  33  85 SE9       30.16S WCI  30
GREEN BAY      CLOUDY    35  32  88 NE8       30.13R WCI  29
MANITOWOC      CLOUDY    30  28  92 MISG      30.16R
APPLETON       CLOUDY    39  27  60 E6        30.09S WCI  35
CLINTONVILLE   CLOUDY    32  30  93 NE5       30.11S WCI  27
OSHKOSH        PTCLDY    40  27  59 SE8       30.10S WCI  34
$$

WIZ032>034-041-042-053>061-201200-
SOUTHWEST WISCONSIN

CITY           SKY/WX    TMP DP  RH WIND       PRES   REMARKS
LA CROSSE      CLOUDY    54  44  69 SE12      29.95R
SPARTA         CLOUDY    48  42  79 E6        29.98F
VIROQUA        CLOUDY    47  41  81 SE14      29.97F
BOSCOBEL       CLOUDY    47  39  74 VRB3      30.00S
PRAIRIE DU CHI CLOUDY    50  43  76 E9        29.97F
PLATTEVILLE    CLOUDY    42  41  97 E13       30.01F
$$

WIZ056-057-062-063-064-067-068-201200-
SOUTH CENTRAL WISCONSIN

CITY           SKY/WX    TMP DP  RH WIND       PRES   REMARKS
REEDSBURG      MOCLDY    42  38  84 CALM      30.03R
BARABOO/DELLS  PTCLDY    41  35  81 E5        30.04S
LONE ROCK      CLOUDY    45  39  79 SE7       30.03S
MINERAL POINT  PTCLDY    48  45  87 SE10      30.02S
MADISON        PTCLDY    43  36  76 MISG      30.06R
MIDDLETON      PTCLDY    41  37  86 CALM      30.06S
WATERTOWN      CLOUDY    40  33  77 E7        30.09R
MONROE         PTCLDY    45  41  87 SE10      30.05S
JANESVILLE     CLOUDY    39  37  93 SE6       30.08R WCI  35
$$

WIZ051-052-058>065-066-070>072-201200-
SOUTHEAST WISCONSIN

CITY           SKY/WX    TMP DP  RH WIND       PRES   REMARKS
MILWAUKEE      PTCLDY    38  33  82 E3        30.12S
WAUKESHA         N/A     32  30  93 NE3       30.12S
MILWAUKEE/TIMM CLOUDY    32  28  86 CALM      30.14R
RACINE         PTCLDY    39  32  76 SE6       30.13F WCI  35
KENOSHA        PTCLDY    41  34  76 SE9       30.11F
FOND DU LAC    PTCLDY    43  28  55 SE13      30.10S
SHEBOYGAN      CLOUDY    31  29  92 NE3       30.14R
WEST BEND      MOCLDY    32  32 100 CALM      30.13R
JUNEAU         PTCLDY    41  33  72 E10       30.10R
$$

LSZ147-162-201200-
LAKE SUPERIOR

STATION/POSITION TIME  TEMP    WIND        PRES    WAVE
                       AIR SEA DIR/SP/G            HT/PER
                 (UTC) (F)     (DEG/KT/KT) (MB)    (FT/S)
DEVILS ISLAND    1100   44     140/  5/  7 1015.2R
PORT WING        1040   34      40/  7/ 10 1013.5S
SAXON HARBOR     1040   47     160/  7/ 15 1013.9S
$$

LMZ867-665-643>646-201200-
LAKE MICHIGAN

STATION/POSITION TIME  TEMP    WIND        PRES    WAVE
                       AIR SEA DIR/SP/G            HT/PER
                 (UTC) (F)     (DEG/KT/KT) (MB)    (FT/S)
CHAMBERS ISLAND  1040   35      70/  5/  6 1021.0F
NORTHPORT PIER   1040   35      CALM  /  3 1022.0S
SISTER BAY       1035   36     110/  9/ 13   N/A
ALGOMA LAKESHORE 1040             CALM       N/A
KEWAUNEE LAKESHO 1054   38      60/  2/  4 1020.5S
SHEBOYGAN LAKESH 1100   39     130/  2/  3 1021.3R
PORT WASHINGTON  1040   38      40/  7/  8 1021.3S
MILWAUKEE LAKESH 1100   39      30/  6/  6   N/A
KENOSHA   LAKESH 1100   39     160/  4/  5 1020.0
$$

TC  - TEMPERATURE IN CELSIUS
VSB - VISIBILITY IN STATUTE MILES
WCI - WIND CHILL INDEX
HX  - HEAT INDEX




USA.gov is the U.S. government's official web portal to all federal, state and local government web resources and services.